Time,TemperatureF,DewpointF,PressureIn,WindDirection,WindDirectionDegrees,WindSpeedMPH,WindSpeedGustMPH,Humidity,HourlyPrecipIn,Conditions,Clouds,dailyrainin,SolarRadiationWatts/m^2,SoftwareType,DateUTC
2013-05-22 00:00:00,40.0,39.0,-100.00,North,353,4.0,8.0,98,0.01,,,1.19,0.000000,,2013-05-22 05:00:00,
2013-05-22 00:22:00,40.0,39.0,-100.00,North,353,4.0,8.0,98,0.01,,,1.19,0.000000,,2013-05-22 05:22:00,
2013-05-22 00:32:00,40.0,39.0,-100.00,North,353,4.0,8.0,98,0.01,,,1.19,0.000000,,2013-05-22 05:32:00,
2013-05-22 00:42:00,40.0,39.0,-100.00,North,353,4.0,8.0,98,0.01,,,1.19,0.000000,,2013-05-22 05:42:00,
2013-05-22 00:52:00,40.0,39.0,-100.00,North,353,4.0,8.0,98,0.01,,,1.19,0.000000,,2013-05-22 05:52:00,
2013-05-22 01:00:00,40.0,39.0,-100.00,NNW,345,4.0,7.0,98,0.00,,,1.19,0.000000,,2013-05-22 06:00:00,
2013-05-22 01:21:00,40.0,39.0,-100.00,NNW,345,4.0,7.0,98,0.00,,,1.19,0.000000,,2013-05-22 06:21:00,
2013-05-22 01:32:00,40.0,39.0,-100.00,NNW,345,4.0,7.0,98,0.00,,,1.19,0.000000,,2013-05-22 06:32:00,
2013-05-22 01:42:00,40.0,39.0,-100.00,NNW,345,4.0,7.0,98,0.00,,,1.19,0.000000,,2013-05-22 06:42:00,
2013-05-22 01:52:00,40.0,39.0,-100.00,NNW,345,4.0,7.0,98,0.00,,,1.19,0.000000,,2013-05-22 06:52:00,
2013-05-22 02:00:00,40.0,40.0,-100.00,North,5,4.0,9.0,99,0.04,,,1.23,0.000000,,2013-05-22 07:00:00,
2013-05-22 02:21:00,40.0,40.0,-100.00,North,5,4.0,9.0,99,0.04,,,1.23,0.000000,,2013-05-22 07:21:00,
2013-05-22 02:32:00,40.0,40.0,-100.00,North,5,4.0,9.0,99,0.04,,,1.23,0.000000,,2013-05-22 07:32:00,
2013-05-22 02:42:00,40.0,40.0,-100.00,North,5,4.0,9.0,99,0.04,,,1.23,0.000000,,2013-05-22 07:42:00,
2013-05-22 02:53:00,40.0,40.0,-100.00,North,5,4.0,9.0,99,0.04,,,1.23,0.000000,,2013-05-22 07:53:00,
2013-05-22 03:00:00,40.0,40.0,-100.00,NNE,18,2.0,11.0,99,0.00,,,-99.99,0.000000,,2013-05-22 08:00:00,
2013-05-22 03:22:00,40.0,40.0,-100.00,NNE,18,2.0,11.0,99,0.00,,,-99.99,0.000000,,2013-05-22 08:22:00,
2013-05-22 03:32:00,40.0,40.0,-100.00,NNE,18,2.0,11.0,99,0.00,,,-99.99,0.000000,,2013-05-22 08:32:00,
2013-05-22 03:42:00,40.0,40.0,-100.00,NNE,18,2.0,11.0,99,0.00,,,-99.99,0.000000,,2013-05-22 08:42:00,
2013-05-22 03:52:00,40.0,40.0,-100.00,NNE,18,2.0,11.0,99,0.00,,,-99.99,0.000000,,2013-05-22 08:52:00,
2013-05-22 04:00:00,41.0,41.0,-100.00,North,4,3.0,9.0,99,0.00,,,1.18,0.000000,,2013-05-22 09:00:00,
2013-05-22 04:22:00,41.0,41.0,-100.00,North,4,3.0,9.0,99,0.00,,,1.18,0.000000,,2013-05-22 09:22:00,
2013-05-22 04:33:00,41.0,41.0,-100.00,North,4,3.0,9.0,99,0.00,,,1.18,0.000000,,2013-05-22 09:33:00,
2013-05-22 04:42:00,41.0,41.0,-100.00,North,4,3.0,9.0,99,0.00,,,1.18,0.000000,,2013-05-22 09:42:00,
2013-05-22 04:53:00,41.0,41.0,-100.00,North,4,3.0,9.0,99,0.00,,,1.18,0.000000,,2013-05-22 09:53:00,
2013-05-22 05:00:00,40.0,40.0,-100.00,North,352,3.0,6.0,99,0.01,,,0.88,0.000000,,2013-05-22 10:00:00,
2013-05-22 05:23:00,40.0,40.0,-100.00,North,352,3.0,6.0,99,0.01,,,0.88,0.000000,,2013-05-22 10:23:00,
2013-05-22 05:33:00,40.0,40.0,-100.00,North,352,3.0,6.0,99,0.01,,,0.88,0.000000,,2013-05-22 10:33:00,
2013-05-22 05:42:00,40.0,40.0,-100.00,North,352,3.0,6.0,99,0.01,,,0.88,0.000000,,2013-05-22 10:42:00,
2013-05-22 05:52:00,40.0,40.0,-100.00,North,352,3.0,6.0,99,0.01,,,0.88,0.000000,,2013-05-22 10:52:00,
2013-05-22 06:00:00,40.0,40.0,-100.00,North,353,4.0,8.0,99,0.00,,,0.74,5.000000,,2013-05-22 11:00:00,
2013-05-22 06:22:00,40.0,40.0,-100.00,North,353,4.0,8.0,99,0.00,,,0.74,5.000000,,2013-05-22 11:22:00,
2013-05-22 06:32:00,40.0,40.0,-100.00,North,353,4.0,8.0,99,0.00,,,0.74,5.000000,,2013-05-22 11:32:00,
2013-05-22 06:42:00,40.0,40.0,-100.00,North,353,4.0,8.0,99,0.00,,,0.74,5.000000,,2013-05-22 11:42:00,
2013-05-22 06:52:00,40.0,40.0,-100.00,North,353,4.0,8.0,99,0.00,,,0.74,5.000000,,2013-05-22 11:52:00,
2013-05-22 07:00:00,40.0,40.0,-100.00,NNW,345,5.0,9.0,99,0.00,,,0.33,40.000000,,2013-05-22 12:00:00,
2013-05-22 07:22:00,40.0,40.0,-100.00,NNW,345,5.0,9.0,99,0.00,,,0.33,40.000000,,2013-05-22 12:22:00,
2013-05-22 07:32:00,40.0,40.0,-100.00,NNW,345,5.0,9.0,99,0.00,,,0.33,40.000000,,2013-05-22 12:32:00,
2013-05-22 07:42:00,40.0,40.0,-100.00,NNW,345,5.0,9.0,99,0.00,,,0.33,40.000000,,2013-05-22 12:42:00,
2013-05-22 07:52:00,40.0,40.0,-100.00,NNW,345,5.0,9.0,99,0.00,,,0.33,40.000000,,2013-05-22 12:52:00,
2013-05-22 08:00:00,41.0,40.0,-100.00,NNW,345,5.0,10.0,98,0.00,,,0.17,109.000000,,2013-05-22 13:00:00,
2013-05-22 08:22:00,41.0,40.0,-100.00,NNW,345,5.0,10.0,98,0.00,,,0.17,109.000000,,2013-05-22 13:22:00,
2013-05-22 08:32:00,41.0,40.0,-100.00,NNW,345,5.0,10.0,98,0.00,,,0.17,109.000000,,2013-05-22 13:32:00,
2013-05-22 08:42:00,41.0,40.0,-100.00,NNW,345,5.0,10.0,98,0.00,,,0.17,109.000000,,2013-05-22 13:42:00,
2013-05-22 08:52:00,41.0,40.0,-100.00,NNW,345,5.0,10.0,98,0.00,,,0.17,109.000000,,2013-05-22 13:52:00,
2013-05-22 09:00:00,43.0,42.0,-100.00,NNE,15,6.0,11.0,98,0.00,,,0.17,163.000000,,2013-05-22 14:00:00,
2013-05-22 09:22:00,43.0,42.0,-100.00,NNE,15,6.0,11.0,98,0.00,,,0.17,163.000000,,2013-05-22 14:22:00,
2013-05-22 09:32:00,43.0,42.0,-100.00,NNE,15,6.0,11.0,98,0.00,,,0.17,163.000000,,2013-05-22 14:32:00,
2013-05-22 09:42:00,43.0,42.0,-100.00,NNE,15,6.0,11.0,98,0.00,,,0.17,163.000000,,2013-05-22 14:42:00,
2013-05-22 09:53:00,43.0,42.0,-100.00,NNE,15,6.0,11.0,98,0.00,,,0.17,163.000000,,2013-05-22 14:53:00,
2013-05-22 10:00:00,44.0,43.0,-100.00,North,0,5.0,11.0,97,0.00,,,-99.99,184.000000,,2013-05-22 15:00:00,
2013-05-22 10:22:00,44.0,43.0,-100.00,North,0,5.0,11.0,97,0.00,,,-99.99,184.000000,,2013-05-22 15:22:00,
2013-05-22 10:33:00,44.0,43.0,-100.00,North,0,5.0,11.0,97,0.00,,,-99.99,184.000000,,2013-05-22 15:33:00,
2013-05-22 10:43:00,44.0,43.0,-100.00,North,0,5.0,11.0,97,0.00,,,-99.99,184.000000,,2013-05-22 15:43:00,
2013-05-22 10:53:00,44.0,43.0,-100.00,North,0,5.0,11.0,97,0.00,,,-99.99,184.000000,,2013-05-22 15:53:00,
2013-05-22 11:00:00,47.0,46.0,-100.00,North,358,6.0,13.0,95,0.00,,,0.17,258.000000,,2013-05-22 16:00:00,
2013-05-22 11:23:00,47.0,46.0,-100.00,North,358,6.0,13.0,95,0.00,,,0.17,258.000000,,2013-05-22 16:23:00,
2013-05-22 11:33:00,47.0,46.0,-100.00,North,358,6.0,13.0,95,0.00,,,0.17,258.000000,,2013-05-22 16:33:00,
2013-05-22 11:42:00,47.0,46.0,-100.00,North,358,6.0,13.0,95,0.00,,,0.17,258.000000,,2013-05-22 16:42:00,
2013-05-22 11:52:00,47.0,46.0,-100.00,North,358,6.0,13.0,95,0.00,,,0.17,258.000000,,2013-05-22 16:52:00,
2013-05-22 12:00:00,47.0,45.0,-100.00,North,9,6.0,12.0,94,0.00,,,0.17,270.000000,,2013-05-22 17:00:00,
2013-05-22 12:23:00,47.0,45.0,-100.00,North,9,6.0,12.0,94,0.00,,,0.17,270.000000,,2013-05-22 17:23:00,
2013-05-22 12:33:00,47.0,45.0,-100.00,North,9,6.0,12.0,94,0.00,,,0.17,270.000000,,2013-05-22 17:33:00,
2013-05-22 12:42:00,47.0,45.0,-100.00,North,9,6.0,12.0,94,0.00,,,0.17,270.000000,,2013-05-22 17:42:00,
2013-05-22 12:54:00,47.0,45.0,-100.00,North,9,6.0,12.0,94,0.00,,,0.17,270.000000,,2013-05-22 17:54:00,
2013-05-22 13:00:00,49.0,46.0,-100.00,North,360,6.0,13.0,91,0.00,,,0.17,347.000000,,2013-05-22 18:00:00,
2013-05-22 13:22:00,49.0,46.0,-100.00,North,360,6.0,13.0,91,0.00,,,0.17,347.000000,,2013-05-22 18:22:00,
2013-05-22 13:34:00,49.0,46.0,-100.00,North,360,6.0,13.0,91,0.00,,,0.17,347.000000,,2013-05-22 18:34:00,
2013-05-22 13:42:00,49.0,46.0,-100.00,North,360,6.0,13.0,91,0.00,,,0.17,347.000000,,2013-05-22 18:42:00,
2013-05-22 13:52:00,49.0,46.0,-100.00,North,360,6.0,13.0,91,0.00,,,0.17,347.000000,,2013-05-22 18:52:00,
2013-05-22 14:00:00,47.0,45.0,-100.00,North,6,7.0,15.0,92,0.00,,,0.17,346.000000,,2013-05-22 19:00:00,
2013-05-22 14:22:00,47.0,45.0,-100.00,North,6,7.0,15.0,92,0.00,,,0.17,346.000000,,2013-05-22 19:22:00,
2013-05-22 14:32:00,47.0,45.0,-100.00,North,6,7.0,15.0,92,0.00,,,0.17,346.000000,,2013-05-22 19:32:00,
2013-05-22 14:42:00,47.0,45.0,-100.00,North,6,7.0,15.0,92,0.00,,,0.17,346.000000,,2013-05-22 19:42:00,
2013-05-22 14:52:00,47.0,45.0,-100.00,North,6,7.0,15.0,92,0.00,,,0.17,346.000000,,2013-05-22 19:52:00,
2013-05-22 15:00:00,47.0,44.0,-100.00,North,7,7.0,17.0,90,0.00,,,0.17,280.000000,,2013-05-22 20:00:00,
2013-05-22 15:22:00,47.0,44.0,-100.00,North,7,7.0,17.0,90,0.00,,,0.17,280.000000,,2013-05-22 20:22:00,
2013-05-22 15:32:00,47.0,44.0,-100.00,North,7,7.0,17.0,90,0.00,,,0.17,280.000000,,2013-05-22 20:32:00,
2013-05-22 15:42:00,47.0,44.0,-100.00,North,7,7.0,17.0,90,0.00,,,0.17,280.000000,,2013-05-22 20:42:00,
2013-05-22 15:52:00,47.0,44.0,-100.00,North,7,7.0,17.0,90,0.00,,,0.17,280.000000,,2013-05-22 20:52:00,
2013-05-22 16:00:00,46.0,45.0,-100.00,North,2,6.0,13.0,95,0.00,,,0.17,145.000000,,2013-05-22 21:00:00,
2013-05-22 16:22:00,46.0,45.0,-100.00,North,2,6.0,13.0,95,0.00,,,0.17,145.000000,,2013-05-22 21:22:00,
2013-05-22 16:33:00,46.0,45.0,-100.00,North,2,6.0,13.0,95,0.00,,,0.17,145.000000,,2013-05-22 21:33:00,
2013-05-22 16:42:00,46.0,45.0,-100.00,North,2,6.0,13.0,95,0.00,,,0.17,145.000000,,2013-05-22 21:42:00,
2013-05-22 16:53:00,46.0,45.0,-100.00,North,2,6.0,13.0,95,0.00,,,0.17,145.000000,,2013-05-22 21:53:00,
2013-05-22 18:00:00,48.0,47.0,-100.00,NNE,25,7.0,15.0,96,-99.99,,,0.23,91.000000,,2013-05-22 23:00:00,
2013-05-22 18:22:00,48.0,47.0,-100.00,NNE,25,7.0,15.0,96,-99.99,,,0.23,91.000000,,2013-05-22 23:22:00,
2013-05-22 18:32:00,48.0,47.0,-100.00,NNE,25,7.0,15.0,96,-99.99,,,0.23,91.000000,,2013-05-22 23:32:00,
2013-05-22 18:42:00,48.0,47.0,-100.00,NNE,25,7.0,15.0,96,-99.99,,,0.23,91.000000,,2013-05-22 23:42:00,
2013-05-22 18:53:00,48.0,47.0,-100.00,NNE,25,7.0,15.0,96,-99.99,,,0.23,91.000000,,2013-05-22 23:53:00,
2013-05-22 19:00:00,48.0,46.0,-100.00,NNE,32,8.0,21.0,93,0.02,,,0.25,53.000000,,2013-05-23 00:00:00,
2013-05-22 19:22:00,48.0,46.0,-100.00,NNE,32,8.0,21.0,93,0.02,,,0.25,53.000000,,2013-05-23 00:22:00,
2013-05-22 19:32:00,48.0,46.0,-100.00,NNE,32,8.0,21.0,93,0.02,,,0.25,53.000000,,2013-05-23 00:32:00,
2013-05-22 19:42:00,48.0,46.0,-100.00,NNE,32,8.0,21.0,93,0.02,,,0.25,53.000000,,2013-05-23 00:42:00,
2013-05-22 19:52:00,48.0,46.0,-100.00,NNE,32,8.0,21.0,93,0.02,,,0.25,53.000000,,2013-05-23 00:52:00,
2013-05-22 20:00:00,47.0,45.0,-100.00,NE,40,6.0,17.0,91,0.03,,,0.28,25.000000,,2013-05-23 01:00:00,
2013-05-22 20:22:00,47.0,45.0,-100.00,NE,40,6.0,17.0,91,0.03,,,0.28,25.000000,,2013-05-23 01:22:00,
2013-05-22 20:32:00,47.0,45.0,-100.00,NE,40,6.0,17.0,91,0.03,,,0.28,25.000000,,2013-05-23 01:32:00,
2013-05-22 20:42:00,47.0,45.0,-100.00,NE,40,6.0,17.0,91,0.03,,,0.28,25.000000,,2013-05-23 01:42:00,
2013-05-22 20:52:00,47.0,45.0,-100.00,NE,40,6.0,17.0,91,0.03,,,0.28,25.000000,,2013-05-23 01:52:00,
2013-05-22 21:00:00,47.0,44.0,-100.00,NNE,23,6.0,13.0,89,0.00,,,0.28,7.000000,,2013-05-23 02:00:00,
2013-05-22 21:22:00,47.0,44.0,-100.00,NNE,23,6.0,13.0,89,0.00,,,0.28,7.000000,,2013-05-23 02:22:00,
2013-05-22 21:32:00,47.0,44.0,-100.00,NNE,23,6.0,13.0,89,0.00,,,0.28,7.000000,,2013-05-23 02:32:00,
2013-05-22 21:42:00,47.0,44.0,-100.00,NNE,23,6.0,13.0,89,0.00,,,0.28,7.000000,,2013-05-23 02:42:00,
2013-05-22 21:52:00,47.0,44.0,-100.00,NNE,23,6.0,13.0,89,0.00,,,0.28,7.000000,,2013-05-23 02:52:00,
2013-05-22 22:00:00,46.0,42.0,-100.00,NE,41,9.0,16.0,86,0.00,,,0.25,0.000000,,2013-05-23 03:00:00,
2013-05-22 22:22:00,46.0,42.0,-100.00,NE,41,9.0,16.0,86,0.00,,,0.25,0.000000,,2013-05-23 03:22:00,
2013-05-22 22:33:00,46.0,42.0,-100.00,NE,41,9.0,16.0,86,0.00,,,0.25,0.000000,,2013-05-23 03:33:00,
2013-05-22 22:43:00,46.0,42.0,-100.00,NE,41,9.0,16.0,86,0.00,,,0.25,0.000000,,2013-05-23 03:43:00,
2013-05-22 22:53:00,46.0,42.0,-100.00,NE,41,9.0,16.0,86,0.00,,,0.25,0.000000,,2013-05-23 03:53:00,
2013-05-22 23:00:00,45.0,41.0,-100.00,NE,43,8.0,21.0,86,0.00,,,0.17,0.000000,,2013-05-23 04:00:00,
2013-05-22 23:23:00,45.0,41.0,-100.00,NE,43,8.0,21.0,86,0.00,,,0.17,0.000000,,2013-05-23 04:23:00,
2013-05-22 23:33:00,45.0,41.0,-100.00,NE,43,8.0,21.0,86,0.00,,,0.17,0.000000,,2013-05-23 04:33:00,
2013-05-22 23:43:00,45.0,41.0,-100.00,NE,43,8.0,21.0,86,0.00,,,0.17,0.000000,,2013-05-23 04:43:00,
2013-05-22 23:52:00,45.0,41.0,-100.00,NE,43,8.0,21.0,86,0.00,,,0.17,0.000000,,2013-05-23 04:52:00,